Overview Statistics Trail Chart Weather Telemetry Raw packets
 

This is the latest recevied weather packets stored in our database for station/object WX6HNX-5. If no packets are shown the sender has not sent any weather packets the latest 10 day(s).

<< 30 31 32 33 34 35 36 >>
Time Temp. Humidity Pressure Rain* Wind** Luminosity Snow
1777356372 10° C 70% 1016.8 hPa 0 mm - - -
1777356073 10° C 72% 1016.9 hPa 0 mm - - -
1777355772 10.56° C 72% 1016.9 hPa 0 mm - - -
1777355473 10.56° C 71% 1016.9 hPa 0 mm - - -
1777355173 11.11° C 69% 1016.9 hPa 0 mm - - -
1777354873 11.67° C 66% 1017 hPa 0 mm - - -
1777354573 11.67° C 68% 1017 hPa 0 mm - - -
1777354273 12.22° C 67% 1016.9 hPa 0 mm - - -
1777353973 12.78° C 66% 1016.9 hPa 0 mm - - -
1777353672 12.78° C 65% 1016.8 hPa 0 mm - - -
1777353373 13.33° C 66% 1016.7 hPa 0 mm - - -
1777353072 13.33° C 66% 1016.8 hPa 0 mm - - -
1777352773 13.33° C 66% 1016.7 hPa 0 mm - - -
1777352473 13.33° C 65% 1016.7 hPa 0 mm - - -
1777352172 13.33° C 65% 1016.6 hPa 0 mm - - -
1777351874 13.33° C 65% 1016.6 hPa 0 mm - - -
1777351572 13.33° C 65% 1016.6 hPa 0 mm - - -
1777351272 13.89° C 65% 1016.5 hPa 0 mm - - -
1777350972 13.89° C 65% 1016.5 hPa 0 mm - - -
1777350673 13.89° C 65% 1016.5 hPa 0 mm - - -
1777350290 13.89° C 65% 1016.3 hPa 0 mm - - -
1777349990 13.89° C 65% 1016.3 hPa 0 mm - - -
1777349690 14.44° C 64% 1016.1 hPa 0 mm - - -
1777349390 14.44° C 63% 1016.1 hPa 0 mm - - -
1777349090 15° C 61% 1016 hPa 0 mm - - -

* Rain latest hour (hover to see other rain measurements)
** Current wind speed in m/s (hover to see current wind gust speed)